Tracking 19908 objects as of 18-Oct-2019
HD Live streaming from Space Station
objects crossing your sky now

SBS 2

Track SBS 2 now!
SBS 2 is classified as:


NORAD ID: 12855
Int'l Code: 1981-096A
Perigee: 35,809.3 km
Apogee: 35,837.6 km
Inclination: 13.9 °
Period: 1,437.6 minutes
Semi major axis: 42194 km
RCS: 7.6855 m2 (large)
Launch date: September 24, 1981
Source: United States (US)
Launch site: AIR FORCE EASTERN TEST RANGE (AFETR)
aabbcc
Your satellite tracking list
Your tracking list is empty




NASA's NSSDC Master Catalog

Two Line Element Set (TLE):
1 12855U 81096A   19290.46399418 -.00000086  00000-0  00000+0 0  9994
2 12855  13.8875 341.3392 0003358 190.8386 187.4727  1.00165855 94183
Source of the keplerian elements: AFSPC